Weather in Badajoz

Spain     38°52′32″N   6°57′48″W
temp.,
°C
wind,
m/s
gust,
m/s
humid.,
%
clouds,
%
prec.,
mm/h
press.,
hPa
HPBL,
m
9 may, sun
sun923:00+15w49525 0.0 1009186
02:00+12wsw4874100 0.0 1011185
05:00+10s349555 0.0 100969
08:00+12ssw5119099 0.0 1008566
11:00+15s81583100 1.2 10071149
14:00+14w69867 2.5 1007597
17:00+19w8105431 0.7 10071761
20:00+18w795114 1.3 10091858
10 may, mon
mon1023:00+11wnw49740 0.0 1012228
02:00+9w35910 0.0 101390
05:00+8wsw34930 0.0 101376
08:00+8sw229121 0.0 101340
11:00+14sw566593 0.4 1013936
14:00+15sw786293 1.6 10131274
17:00+16w795598 1.3 10121787
20:00+15wnw710605 1.8 10131354
11 may, tue
tue1123:00+10w410810 0.0 1017309
02:00+8w48930 0.0 1019165
05:00+7w36932 0.0 1020124
08:00+7w3489100 0.0 102299
11:00+14wnw46578 0.0 10221289
14:00+17w5645100 0.1 10222041
17:00+17w6648100 0.0 10211672
20:00+17w25462 0.0 10201390
12 may, wed
wed1223:00+11wnw36675 0.0 1022111
02:00+9w388690 0.0 1022184
05:00+11wsw398247 0.0 1020365
08:00+11ssw41083100 0.0 1020408
11:00+13sw598774 0.4 1020580
14:00+20w79403 0.6 10191911
17:00+22w89355 0.0 10182368
20:00+19wnw78481 0.0 10181475
13 may, thu
thu1323:00+13wnw410745 0.0 1020256
02:00+10w49945 0.0 1020198
05:00+9w36978 0.0 1019139
08:00+8w36925 0.0 1019155
11:00+16wnw56576 0.0 1018846
14:00+16wnw6860100 0.0 10181037
17:00+14nw2574100 0.1 1017391
20:00+14ssw2681100 0.2 1016497